Location: New Paltz
(41.7500°N, 74.0833°W)
Time: 01:28:11
(UTC-04:00)

Daily predictions for brighter satellites

Satellite Brightness Start Highest point End
(mag) Time Altitude Azimuth Time Altitude Azimuth Time Altitude Azimuth
Cosmos 1766 Rocket 3.6 00:06:17 80° NNW 00:06:17 80° NNW 00:10:35 10° N
Cosmos 1867 3.4 00:08:44 74° S 00:09:14 83° ESE 00:14:45 10° NE
Cosmos 2266 Rocket 4.4 00:09:11 43° ESE 00:10:16 47° E 00:16:21 10° NNE
Cosmos 1328 Rocket 4.1 00:06:04 10° N 00:10:01 50° ENE 00:10:01 50° ENE
Meteor 1-24 Rocket 3.9 00:10:29 53° SW 00:11:52 72° W 00:17:45 10° N
H-2A R/B 4.1 00:14:20 14° WSW 00:15:35 16° W 00:18:34 10° NW
S3M 3.9 00:09:27 10° N 00:15:42 86° W 00:16:50 62° S
In-Cosmos 22 4.4 00:15:25 53° ESE 00:15:47 54° E 00:21:20 10° NNE
Cosmos 1428 Rocket 4.4 00:17:36 60° SSW 00:18:51 85° W 00:25:06 10° N
Cosmos 468 Rocket 4.3 00:16:07 10° NNW 00:21:13 52° WSW 00:21:20 52° WSW
Lacrosse 5 2.7 00:17:15 10° NW 00:22:09 47° NE 00:23:43 35° E
USA 234 4.4 00:24:29 26° SW 00:24:29 26° SW 00:29:47 10° WNW
NOSS 3-2 (A) 4.3 00:22:47 18° WSW 00:27:16 48° NW 00:33:46 10° NNE
Cosmos 1515 Rocket 3.9 00:23:03 10° N 00:27:06 59° NE 00:27:06 59° NE
Cosmos 1814 Rocket 4.5 00:27:03 10° NNW 00:32:07 48° WSW 00:32:11 48° WSW
Helios 1A Rocket 3.7 00:30:06 10° NNE 00:33:12 46° NE 00:33:12 46° NE
Cosmos 2344 3.6 00:35:51 47° SSW 00:38:28 79° ESE 00:47:13 10° NE
Genesis I 4.4 00:35:51 10° NW 00:38:29 40° NW 00:38:29 40° NW
Timation 2 Rocket 4.5 00:37:11 38° SW 00:39:53 63° WNW 00:46:38 10° NNE
Cosmos 2369 3.9 00:35:00 10° NNW 00:40:31 55° WSW 00:40:41 54° WSW
Cosmos 836 Rocket 4.4 00:38:35 10° NNW 00:43:49 79° ENE 00:44:03 77° ESE
Cosmos 540 Rocket 4.3 00:43:11 10° N 00:48:08 43° ENE 00:49:03 39° E
BREEZE-M TANK 3.8 00:32:18 10° SW 00:50:02 63° SSE 00:54:05 10° ENE
Cosmos 2228 Rocket 4.0 00:46:49 10° NNW 00:50:23 39° WNW 00:50:23 39° WNW
CZ-2C R/B 4.3 00:49:56 30° ESE 00:51:39 37° ENE 00:56:52 10° N
CZ-4C R/B 3.7 00:48:42 14° W 00:52:49 33° NW 00:58:18 10° NNE
Cosmos 1980 Rocket 2.9 00:48:31 10° NNW 00:53:59 48° ENE 00:55:32 38° ESE
Cosmos 1763 Rocket 3.8 00:50:31 10° NNW 00:55:33 54° W 00:55:33 54° W
Cosmos 2151 3.8 00:57:24 44° ENE 00:57:24 44° ENE 01:00:47 10° NNE
Meteor 1-21 Rocket 4.2 01:00:00 63° SW 01:00:42 71° WNW 01:06:21 10° N
Aureole 1 Rocket 3.7 01:02:50 10° NNW 01:07:48 77° ENE 01:08:45 62° SE
Cosmos 1151 Rocket 3.4 01:03:45 10° N 01:07:19 61° NNW 01:07:19 61° NNW
ALOS 2 4.0 01:09:34 29° WNW 01:09:34 29° WNW 01:12:43 10° NNW
Cosmos 1908 4.2 01:05:01 10° N 01:07:45 44° NNW 01:07:45 44° NNW
CZ-4B R/B 3.7 01:11:20 21° WNW 01:11:20 21° WNW 01:13:07 10° NW
Meteor 2-20 Rocket 4.5 01:10:31 58° SW 01:11:36 69° W 01:17:46 10° N
Cosmos 1300 4.2 01:09:06 10° NNE 01:12:04 31° ENE 01:12:04 31° ENE
Cosmos 1697 Rocket 2.5 01:07:01 10° NNW 01:12:42 76° WSW 01:13:02 73° SSW
Cosmos 1707 Rocket 4.4 01:09:03 10° N 01:13:04 41° ENE 01:13:04 41° ENE
ISS -1.0 01:11:04 10° NW 01:13:34 25° N 01:13:34 25° N
CENTAUR R/B 2.4 01:16:44 62° SSW 01:17:56 88° ESE 01:24:50 10° NE
Cosmos 2082 Rocket 2.9 01:16:38 39° W 01:18:02 47° WNW 01:23:32 10° NNE
Cosmos 405 4.4 01:14:34 10° N 01:17:00 39° N 01:17:00 39° N
ATLAS 5 CENTAUR R/B 4.1 01:18:56 14° E 01:18:56 14° E 01:20:50 10° ENE
H-2A R/B 4.3 01:15:28 10° NNW 01:18:16 21° WNW 01:18:16 21° WNW
Cosmos 1833 Rocket 2.9 01:17:26 52° WSW 01:18:26 60° WNW 01:24:01 10° NNE
Cosmos 1726 3.8 01:17:00 10° NNE 01:19:46 27° ENE 01:19:46 27° ENE
Cosmos 1441 Rocket 4.2 01:22:02 45° NNW 01:22:02 45° NNW 01:25:05 10° N
Cosmos 1656 4.2 01:21:55 10° NW 01:27:08 43° WSW 01:27:08 43° WSW
ASTEX 1 3.4 01:31:26 10° N 01:36:22 67° E 01:36:38 66° ESE
Lacrosse 5 rocket 1.9 01:33:16 10° NW 01:37:33 59° NE 01:38:02 55° ENE
Cosmos 1674 4.1 01:38:42 31° NW 01:38:42 31° NW 01:41:20 10° N
Cosmos 1437 Rocket 4.1 01:34:21 10° NNW 01:36:49 31° NW 01:36:49 31° NW
Sich 1 3.4 01:39:15 56° E 01:39:15 56° E 01:43:26 10° NNE
Cosmos 968 Rocket 3.6 01:39:55 56° ESE 01:40:09 56° ESE 01:45:12 10° NNE
CZ-2C R/B 2.8 01:36:48 10° N 01:42:14 61° WNW 01:43:03 54° WSW
PSLV R/B 4.2 01:44:04 63° NW 01:44:04 63° NW 01:47:39 10° NNW
Cosmos 2360 4.1 01:46:45 10° NNW 01:52:29 84° WSW 01:53:30 62° S
Cosmos 371 Rocket 3.2 01:48:58 10° NNW 01:53:51 81° ENE 01:54:14 73° SE
USA 32 4.3 01:51:49 10° NNW 01:56:54 51° W 01:57:14 50° WSW
SL-16 R/B 2.5 01:55:45 10° NNW 02:01:24 63° ENE 02:03:55 33° SE
ATLAS CENTAUR R/B 4.5 01:59:00 10° N 02:02:04 17° NE 02:04:59 10° ENE
Cosmos 1745 Rocket 3.9 02:00:50 53° S 02:02:30 88° W 02:08:52 10° N
Lacrosse 5 3.4 02:00:29 10° WNW 02:02:51 23° W 02:02:51 23° W
Cosmos 2058 3.7 02:05:34 42° WNW 02:05:34 42° WNW 02:09:13 10° N
Nadezhda 1 Rocket 3.9 02:00:47 10° N 02:06:57 87° E 02:08:46 49° S
Cosmos 2322 Rocket 2.2 02:05:08 10° NNW 02:10:47 80° ENE 02:12:46 42° SSE
Meteor 2-10 4.1 02:13:04 10° N 02:18:23 76° E 02:20:05 45° SSE
Meteor 1-4 Rocket 2.9 02:15:57 10° N 02:19:43 64° ENE 02:19:43 64° ENE
Cosmos 1538 Rocket 4.0 02:15:17 10° NNW 02:20:26 59° WSW 02:20:55 56° SW
Cosmos 923 Rocket 4.2 02:18:55 10° NNW 02:24:11 69° ENE 02:26:25 34° SE
SL-14 R/B 4.2 02:27:34 36° WNW 02:27:34 36° WNW 02:30:48 10° N
Cosmos 773 Rocket 3.8 02:22:58 10° NNW 02:28:08 88° WSW 02:29:35 49° SSE
Cosmos 1777 Rocket 3.9 02:28:51 55° SSW 02:30:03 84° WNW 02:35:23 10° NNE
CZ-2C R/B 4.1 02:31:01 32° WSW 02:31:28 32° W 02:36:35 10° NNW
Cosmos 1680 Rocket 3.9 02:26:36 10° NNW 02:31:47 62° ENE 02:34:46 25° SE
NPP 3.9 02:27:50 10° NNE 02:33:11 60° E 02:35:03 38° SSE
Cosmos 1271 Rocket 2.6 02:30:33 10° NNW 02:34:09 79° NW 02:34:09 79° NW
ERS-2 2.3 02:30:50 10° NNE 02:34:32 63° ESE 02:34:37 63° ESE
Cosmos 2292 Rocket 4.0 02:34:34 37° ESE 02:34:53 38° E 02:38:31 10° NNE
Cosmos 1980 Rocket 3.4 02:33:11 10° NW 02:37:16 24° W 02:37:16 24° W
Cosmos 1703 3.6 02:38:10 50° WNW 02:38:10 50° WNW 02:41:59 10° N
Cosmos 2360 Rocket 3.0 02:33:16 10° NNW 02:38:45 50° ENE 02:44:13 10° SE
Cosmos 1869 3.4 02:35:17 10° N 02:39:17 70° E 02:39:56 56° SE
USA 215 3.6 02:33:28 10° ENE 02:39:47 50° SE 02:42:14 34° S
Cosmos 1633 Rocket 4.2 02:41:33 30° W 02:41:54 30° WNW 02:45:51 10° NNW
JB-3 4.3 02:40:45 10° N 02:44:41 64° WNW 02:44:58 62° W
CBERS-1 4.2 02:40:46 10° NNE 02:45:52 64° ESE 02:47:47 37° SSE
PSLV R/B 4.0 02:41:47 10° N 02:46:11 50° WNW 02:46:56 45° WSW
ARIANE 5 R/B 4.0 02:47:31 10° NE 02:51:53 28° E 02:55:08 15° SSE
IRS-1C 4.4 02:46:52 10° NNE 02:52:10 60° ESE 02:54:37 31° S
Cosmos 1726 4.3 02:52:58 10° NW 02:54:26 15° WNW 02:54:26 15° WNW
Resurs 1-4 Rocket 4.0 02:51:11 10° NE 02:55:23 23° E 02:59:35 10° SE
IRAS Rocket 4.4 02:55:52 10° N 03:01:15 58° WNW 03:03:24 35° SW
ATLAS 5 CENTAUR R/B 1.9 03:00:28 41° SW 03:02:12 74° NW 03:07:29 10° NNE
Cosmos 2219 4.0 02:59:21 25° SSE 03:02:21 45° ESE 03:07:48 10° NE
Cosmos 1703 Rocket 3.8 02:58:31 10° N 03:02:51 66° E 03:05:05 27° SSE
Cosmos 2322 3.8 02:58:06 10° NNW 03:03:52 78° ENE 03:09:35 10° SSE
Cosmos 1470 Rocket 4.4 03:04:26 32° W 03:05:13 35° WNW 03:09:17 10° N
IRS-P3 4.3 03:01:16 10° N 03:06:31 59° WNW 03:08:40 34° SW
SAR-Lupe-3 4.4 03:07:35 50° SSE 03:08:27 90° E 03:12:02 10° NNW
Cosmos 1933 Rocket 4.5 03:08:34 30° W 03:09:24 32° WNW 03:13:24 10° NNW
CENTAUR R/B 4.4 03:04:25 10° W 03:09:35 25° NNW 03:15:16 10° NNE
SL-08 R/B 3.4 03:09:01 37° SSW 03:10:47 59° W 03:15:40 10° NNW
Okean 1-7 3.7 03:09:48 10° N 03:14:07 53° E 03:17:32 15° SSE
Cosmos 1455 3.0 03:11:36 10° NNW 03:15:01 32° W 03:15:01 32° W
Lacrosse 5 rocket 3.7 03:13:16 10° WNW 03:13:41 12° W 03:13:41 12° W
Cosmos 2181 Rocket 4.1 03:11:39 10° NNW 03:17:42 59° W 03:21:09 26° SSW
Cosmos 1626 3.1 03:18:21 30° W 03:18:48 31° WNW 03:22:13 10° NNW
ADEOS 3.5 03:16:30 10° NNE 03:21:45 85° WNW 03:24:36 28° SSW
Cosmos 1933 3.3 03:19:52 10° NNW 03:23:53 68° W 03:25:27 35° SSW
OAO 3 Rocket 4.2 03:26:06 25° S 03:26:06 25° S 03:29:13 10° SE
Cosmos 2150 Rocket 4.2 03:23:41 25° S 03:26:48 71° ESE 03:32:12 10° NNE
Cosmos 2112 Rocket 4.2 03:22:35 10° NNW 03:27:35 48° WSW 03:30:11 26° SSW
BREEZE-M DEB (TANK) 4.3 03:24:18 10° W 03:34:18 59° N 03:37:51 10° E
Cosmos 1346 4.3 03:37:22 27° W 03:37:39 27° WNW 03:40:21 10° NNW
COSMOS 2428 2.9 03:32:31 10° NNW 03:38:13 74° ENE 03:43:52 10° SSE
USA 129 4.0 03:38:34 16° ENE 03:38:34 16° ENE 03:39:35 10° NNE
Cosmos 304 Rocket 4.5 03:34:15 10° NW 03:38:36 34° WSW 03:40:21 26° SW
Cosmos 1892 4.4 03:36:41 10° SSE 03:40:06 30° E 03:43:31 10° NNE
Cosmos 2074 Rocket 4.0 03:37:01 20° SSW 03:41:29 76° W 03:47:46 10° N
ATLAS CENTAUR R/B 1.4 03:37:10 10° NW 03:41:51 81° WSW 03:46:08 10° SSE
USA 161 2.1 03:43:22 30° WNW 03:43:22 30° WNW 03:45:08 10° NNW
SL-16 R/B 3.6 03:41:11 10° WNW 03:44:55 18° W 03:45:44 18° WSW
H-2A R/B 4.4 03:12:56 10° W 03:44:58 34° SW 03:50:44 10° SSE
USA 229 DEB 3.7 03:40:56 22° SW 03:45:45 86° WNW 03:52:49 10° NE
USA 229 3.7 03:41:02 22° SW 03:45:52 86° WNW 03:52:54 10° NE
Cosmos 2237 Rocket 4.2 03:42:32 10° N 03:47:33 31° NE 03:52:33 10° ESE
GPS 2-05 Rocket1 4.1 03:50:39 22° S 03:50:39 22° S 03:52:56 10° SE
Cosmos 2184 Rocket 4.1 03:46:16 18° SSW 03:51:02 67° W 03:57:21 10° N
Cosmos 2322 Rocket 3.9 03:51:25 10° WNW 03:54:02 13° W 03:54:31 13° WSW
CZ-2D R/B 2.2 03:51:10 10° NNE 03:56:28 81° ESE 04:01:22 12° S
UNK 3.6 03:52:32 10° S 03:57:07 82° WSW 04:01:43 10° NNW
Cosmos 292 Rocket 3.7 03:52:46 10° NNW 03:57:37 90° S 04:02:23 10° SSE
Cosmos 2219 Rocket 3.0 03:53:11 10° NNW 03:58:40 53° ENE 04:04:06 10° SE
MOS 1-B 4.4 03:53:27 10° NNE 03:59:17 81° ESE 04:04:54 11° SSW
Cosmos 990 Rocket 4.2 03:55:09 13° S 03:59:39 67° ESE 04:04:46 10° NNE
Okean O Rocket 2.9 03:56:03 10° NNE 04:00:12 38° E 04:04:17 10° SSE
Cosmos 2237 4.2 03:54:49 10° NNW 04:00:33 72° WSW 04:06:14 10° SSE
BREEZE-M DEB (TANK) 3.6 03:52:16 17° SW 04:01:14 65° SSE 04:04:54 10° ENE
CRYOSAT 2 4.5 03:56:33 10° N 04:01:21 60° W 04:05:17 15° SSW
FALCON 9 R/B 2.2 04:02:01 14° SSE 04:02:01 14° SSE 04:02:50 10° SE
ATLAS 2A CENTAUR R/B 4.3 03:56:24 16° SSW 04:02:59 39° SSE 04:44:43 10° E
AVUM R/B 2.9 04:03:27 26° S 04:04:19 45° ESE 04:06:24 10° NE
Meteor 2-10 Rocket 3.9 04:00:06 10° N 04:05:09 64° ENE 04:10:22 10° SSE
SL-16 R/B 2.6 03:59:38 10° S 04:05:51 67° WSW 04:12:07 10° NNW
CZ-2D R/B 4.0 04:03:22 10° NNE 04:07:24 55° E 04:11:21 10° S
UNKNOWN OBJECT B 2.8 04:04:38 10° NNE 04:08:30 81° E 04:12:15 11° S
MTI 3.8 04:07:16 10° S 04:10:36 65° WSW 04:13:57 10° NNW
SL-24 DEB 4.3 04:06:27 10° N 04:11:07 84° E 04:15:43 10° S
Meteor 2-3 Rocket 4.0 04:14:49 12° SSW 04:20:09 59° WNW 04:25:55 10° N
Cosmos 2360 Rocket 3.3 04:18:02 10° NW 04:22:23 23° WSW 04:26:42 10° SSW
USA 215 3.8 04:16:29 10° NE 04:22:48 53° NNW 04:29:05 10° WSW
Cosmos 220 Rocket 4.0 04:20:02 12° SSW 04:23:54 72° WNW 04:28:13 10° NNE
Iridium 4 Rocket 4.4 04:21:10 10° NNE 04:25:09 39° E 04:29:02 10° SSE
Cosmos 2227 Rocket 2.7 04:22:58 10° S 04:28:30 60° ESE 04:34:03 10° NNE
DELTA 2 R/B (1) 4.3 04:23:52 12° SW 04:28:31 39° SSE 04:33:42 10° E
ARIANE 5 R/B 3.4 04:26:29 10° N 04:31:01 34° WNW 04:35:28 10° SW
Okean-O 4.4 04:30:15 10° NNE 04:34:13 31° E 04:38:09 10° SSE
Resurs 1-4 Rocket 2.6 04:30:22 10° N 04:35:25 45° WNW 04:40:27 10° SW
CZ-4B R/B 3.4 04:32:41 10° NNE 04:38:12 77° ESE 04:43:46 10° S
Cosmos 1733 Rocket 3.4 04:35:50 10° SSW 04:40:02 49° W 04:44:19 10° N
Cosmos 1937 Rocket 4.4 04:39:10 10° SW 04:44:01 36° WNW 04:48:54 10° N
Thor Agena Rocket 3.6 04:41:22 10° S 04:46:39 74° WSW 04:51:57 10° NNW
Cosmos 2219 4.4 04:41:46 10° WSW 04:46:41 29° NW 04:51:38 10° N
Cosmos 1408 4.0 04:43:27 10° SSE 04:46:55 40° E 04:50:25 10° NNE
Cosmos 1125 Rocket 3.7 04:42:19 10° SSW 04:47:35 78° ESE 04:52:55 10° NNE
SL-23 DEB 4.0 04:44:25 10° WNW 04:47:39 49° SW 04:52:19 10° SE
ATLAS 5 CENTAUR R/B 4.1 04:44:45 10° WNW 04:47:55 16° NNW 04:51:14 10° N
Cosmos 1606 3.0 04:45:22 10° N 04:49:09 73° E 04:52:56 10° SSE
PSLV R/B 4.0 04:45:40 10° N 04:49:36 60° WNW 04:53:36 10° SSW
NOSS 0 Rocket 3.9 04:45:16 10° NNW 04:51:22 68° WSW 04:57:26 10° SSE
Meteor 1-10 Rocket 4.4 04:47:10 10° NNW 04:52:45 56° W 04:58:26 10° S
Coronas F rocket 1.7 04:51:05 10° SSW 04:53:44 46° W 04:56:25 10° N
